Location: Newark
(53.3333°N, 83.7500°E)
Time: 19:46:51
(UTC+00:00)

Vanguard 2 - Pass Details

Date: 26 November 2019
Orbit: 553 x 2938 km, 32.9° (Epoch: 05 December)

Event Time Altitude Azimuth Distance (km) Brightness Sun altitude
Rises 04:21:00 0° 254° (WSW) 5,405 11.7 12.0°
Reaches altitude 10° 04:27:06 10° 234° (SW) 3,821 11.3 12.4°
Maximum altitude 04:31:30 14° 207° (SSW) 3,052 11.3 12.7°
Drops below altitude 10° 04:35:07 10° 177° (S) 2,985 12.2 12.9°
Sets 04:38:50 0° 152° (SSE) 3,548 13.0 13.1°
